When you browse on this site, cookies collect data to enhance your experience and personalize the content and advertising you see.
Visit our Privacy Policy to learn more. By continuing to use the site, you agree to this use of cookies and data.
  • In United Kingdom
  • List of Countries
  • For 7 days
  • Water Temperature
  • Weather Map
  • Weather Widgets
  • user-avatar
    Login

    Hourly Weather Pivdenne

    Today, 16 October, Wednesday

    Time Temperature Precipitation Wind Pressure Humidity
    00:00 +14°C° 0 mm 2 mps 759 mmHg 67%
    01:00 +14°C° 0 mm 2 mps 759 mmHg 66%
    02:00 +14°C° 0 mm 2 mps 759 mmHg 66%
    03:00 +14°C° 0 mm 2 mps 759 mmHg 68%
    04:00 +14°C° 0 mm 2 mps 759 mmHg 69%
    05:00 +14°C° 0 mm 2 mps 758 mmHg 71%
    06:00 +14°C° 0 mm 3 mps 758 mmHg 70%
    07:00 +16°C° 0 mm 3 mps 759 mmHg 69%
    08:00 +17°C° 0 mm 3 mps 759 mmHg 67%
    09:00 +18°C° 0 mm 4 mps 759 mmHg 59%
    10:00 +20°C° 0 mm 4 mps 759 mmHg 52%
    11:00 +21°C° 0 mm 4 mps 759 mmHg 45%
    12:00 +22°C° 0 mm 4 mps 758 mmHg 44%
    13:00 +22°C° 0 mm 4 mps 758 mmHg 43%
    14:00 +22°C° 0 mm 4 mps 758 mmHg 42%
    15:00 +21°C° 0 mm 3 mps 758 mmHg 48%
    16:00 +19°C° 0 mm 3 mps 757 mmHg 55%
    17:00 +18°C° 0 mm 3 mps 757 mmHg 61%
    18:00 +17°C° 0 mm 2 mps 757 mmHg 63%
    19:00 +16°C° 0 mm 2 mps 757 mmHg 65%
    20:00 +16°C° 0 mm 2 mps 758 mmHg 67%
    21:00 +15°C° 0 mm 2 mps 758 mmHg 68%
    22:00 +15°C° 0 mm 2 mps 758 mmHg 68%
    23:00 +15°C° 0 mm 2 mps 758 mmHg 69%

    Tomorrow, 17 October, Thursday

    Time Temperature Precipitation Wind Pressure Humidity
    00:00 +15°C° 0 mm 2 mps 758 mmHg 73%
    01:00 +15°C° 0 mm 2 mps 758 mmHg 76%
    02:00 +15°C° 0 mm 2 mps 758 mmHg 80%
    03:00 +14°C° 0 mm 2 mps 758 mmHg 82%
    04:00 +14°C° 0 mm 2 mps 758 mmHg 83%
    05:00 +14°C° 0 mm 2 mps 757 mmHg 85%
    06:00 +15°C° 0 mm 2 mps 757 mmHg 82%
    07:00 +15°C° 0 mm 2 mps 758 mmHg 79%
    08:00 +16°C° 0 mm 2 mps 758 mmHg 76%
    09:00 +18°C° 0 mm 2 mps 758 mmHg 67%
    10:00 +20°C° 0 mm 2 mps 758 mmHg 59%
    11:00 +21°C° 0 mm 2 mps 758 mmHg 51%
    12:00 +23°C° 0 mm 2 mps 758 mmHg 48%
    13:00 +23°C° 0 mm 2 mps 758 mmHg 45%
    14:00 +24°C° 0 mm 2 mps 757 mmHg 43%
    15:00 +23°C° 0 mm 2 mps 757 mmHg 48%
    16:00 +20°C° 0 mm 2 mps 757 mmHg 54%
    17:00 +19°C° 0 mm 2 mps 757 mmHg 59%
    18:00 +19°C° 0 mm 1 mps 757 mmHg 61%
    19:00 +18°C° 0 mm 1 mps 757 mmHg 63%
    20:00 +16°C° 0 mm 0 mps 758 mmHg 65%
    21:00 +15°C° 0 mm 0 mps 758 mmHg 64%
    22:00 +16°C° 0 mm 1 mps 758 mmHg 63%
    23:00 +16°C° 0 mm 1 mps 758 mmHg 63%

    Day after tomorrow, 18 October, Friday

    Time Temperature Precipitation Wind Pressure Humidity
    00:00 +16°C° 0 mm 1 mps 758 mmHg 64%
    01:00 +16°C° 0 mm 1 mps 758 mmHg 64%
    02:00 +15°C° 0 mm 1 mps 757 mmHg 65%
    03:00 +15°C° 0 mm 2 mps 758 mmHg 65%
    04:00 +15°C° 0 mm 2 mps 758 mmHg 65%
    05:00 +14°C° 0 mm 2 mps 758 mmHg 66%
    06:00 +15°C° 0 mm 2 mps 758 mmHg 63%
    07:00 +16°C° 0 mm 2 mps 758 mmHg 60%
    08:00 +17°C° 0 mm 2 mps 758 mmHg 57%
    09:00 +18°C° 0 mm 2 mps 758 mmHg 53%
    10:00 +20°C° 0 mm 2 mps 758 mmHg 48%
    11:00 +23°C° 0 mm 2 mps 758 mmHg 44%
    12:00 +23°C° 0 mm 2 mps 758 mmHg 43%
    13:00 +24°C° 0 mm 2 mps 758 mmHg 42%
    14:00 +24°C° 0 mm 2 mps 758 mmHg 41%
    15:00 +23°C° 0 mm 2 mps 757 mmHg 45%
    16:00 +21°C° 0 mm 2 mps 757 mmHg 50%
    17:00 +20°C° 0 mm 1 mps 757 mmHg 55%
    18:00 +20°C° 0 mm 1 mps 757 mmHg 57%
    19:00 +19°C° 0 mm 1 mps 757 mmHg 59%
    20:00 +16°C° 0 mm 0 mps 757 mmHg 62%
    21:00 +18°C° 0 mm 1 mps 757 mmHg 62%
    22:00 +18°C° 0 mm 1 mps 758 mmHg 63%
    23:00 +16°C° 0 mm 1 mps 758 mmHg 63%

    19 October, Saturday

    Time Temperature Precipitation Wind Pressure Humidity
    00:00 +16°C° 0 mm 1 mps 758 mmHg 64%
    01:00 +16°C° 0 mm 1 mps 758 mmHg 64%
    02:00 +15°C° 0 mm 1 mps 758 mmHg 65%
    03:00 +15°C° 0 mm 2 mps 758 mmHg 66%
    04:00 +15°C° 0 mm 2 mps 758 mmHg 66%
    05:00 +15°C° 0 mm 2 mps 758 mmHg 67%
    06:00 +15°C° 0 mm 2 mps 758 mmHg 66%
    07:00 +16°C° 0 mm 2 mps 758 mmHg 64%
    08:00 +17°C° 0 mm 2 mps 758 mmHg 63%
    09:00 +18°C° 0 mm 2 mps 758 mmHg 57%
    10:00 +20°C° 0 mm 2 mps 759 mmHg 52%
    11:00 +21°C° 0 mm 3 mps 759 mmHg 46%
    12:00 +22°C° 0 mm 3 mps 759 mmHg 45%
    13:00 +22°C° 0 mm 3 mps 758 mmHg 43%
    14:00 +22°C° 0 mm 3 mps 758 mmHg 42%
    15:00 +21°C° 0 mm 3 mps 758 mmHg 47%
    16:00 +20°C° 0 mm 2 mps 758 mmHg 53%
    17:00 +18°C° 0 mm 2 mps 758 mmHg 58%
    18:00 +17°C° 0 mm 2 mps 758 mmHg 60%
    19:00 +18°C° 0 mm 1 mps 758 mmHg 62%
    20:00 +16°C° 0 mm 1 mps 759 mmHg 64%
    21:00 +16°C° 0 mm 1 mps 759 mmHg 64%
    22:00 +16°C° 0 mm 1 mps 759 mmHg 64%
    23:00 +15°C° 0 mm 1 mps 759 mmHg 64%

    20 October, Sunday

    Time Temperature Precipitation Wind Pressure Humidity
    00:00 +15°C° 0 mm 1 mps 759 mmHg 66%
    01:00 +15°C° 0 mm 2 mps 759 mmHg 68%
    02:00 +15°C° 0 mm 2 mps 759 mmHg 70%
    03:00 +14°C° 0 mm 2 mps 759 mmHg 72%
    04:00 +14°C° 0 mm 2 mps 759 mmHg 73%
    05:00 +13°C° 0 mm 3 mps 759 mmHg 75%
    06:00 +14°C° 0 mm 3 mps 760 mmHg 74%
    07:00 +14°C° 0 mm 3 mps 760 mmHg 72%
    08:00 +15°C° 0 mm 4 mps 760 mmHg 70%
    09:00 +18°C° 0 mm 4 mps 760 mmHg 63%
    10:00 +19°C° 0 mm 4 mps 760 mmHg 56%
    11:00 +21°C° 0 mm 4 mps 761 mmHg 48%
    12:00 +21°C° 0 mm 4 mps 760 mmHg 47%
    13:00 +21°C° 0 mm 4 mps 760 mmHg 47%
    14:00 +21°C° 0 mm 4 mps 760 mmHg 46%
    15:00 +20°C° 0 mm 3 mps 760 mmHg 53%
    16:00 +18°C° 0 mm 3 mps 760 mmHg 60%
    17:00 +17°C° 0 mm 2 mps 760 mmHg 67%
    18:00 +16°C° 0 mm 2 mps 760 mmHg 70%
    19:00 +16°C° 0 mm 2 mps 760 mmHg 73%
    20:00 +15°C° 0 mm 2 mps 761 mmHg 76%
    21:00 +15°C° 0 mm 2 mps 761 mmHg 76%
    22:00 +15°C° 0 mm 2 mps 761 mmHg 76%
    23:00 +15°C° 0 mm 2 mps 761 mmHg 77%

    21 October, Monday

    Time Temperature Precipitation Wind Pressure Humidity
    00:00 +14°C° 0 mm 2 mps 761 mmHg 78%
    01:00 +14°C° 0 mm 2 mps 761 mmHg 80%
    02:00 +14°C° 0 mm 2 mps 761 mmHg 82%
    03:00 +14°C° 0 mm 2 mps 761 mmHg 84%
    04:00 +13°C° 0 mm 3 mps 761 mmHg 86%
    05:00 +12°C° 0 mm 3 mps 761 mmHg 88%
    06:00 +13°C° 0 mm 3 mps 761 mmHg 85%
    07:00 +14°C° 0 mm 3 mps 762 mmHg 81%
    08:00 +14°C° 0 mm 3 mps 762 mmHg 78%
    09:00 +17°C° 0 mm 3 mps 762 mmHg 69%
    10:00 +19°C° 0 mm 4 mps 762 mmHg 61%
    11:00 +21°C° 0 mm 4 mps 762 mmHg 52%
    12:00 +21°C° 0 mm 4 mps 762 mmHg 50%
    13:00 +21°C° 0 mm 4 mps 762 mmHg 48%
    14:00 +21°C° 0 mm 4 mps 762 mmHg 46%
    15:00 +20°C° 0 mm 3 mps 761 mmHg 52%
    16:00 +18°C° 0 mm 3 mps 761 mmHg 58%
    17:00 +17°C° 0 mm 2 mps 761 mmHg 63%
    18:00 +16°C° 0 mm 2 mps 761 mmHg 65%
    19:00 +16°C° 0 mm 2 mps 761 mmHg 67%
    20:00 +15°C° 0 mm 2 mps 762 mmHg 69%
    21:00 +15°C° 0 mm 2 mps 762 mmHg 70%
    22:00 +15°C° 0 mm 2 mps 762 mmHg 71%
    23:00 +14°C° 0 mm 2 mps 762 mmHg 71%
    Show more